Probability
0 0 0 0 0 0 0 0 0 0 0 0 0 0 0 0 0 0 0 0 0 0 0 0 0 0 0 0 0 0 0 0 0 0 0 0 0 0 0 0 0 0 0
0 0 0 0 0 0 0 0 0 0 0 0 0 0 0 0 0 0 0 0 0 0 0 0 0 0 0 0 0 0 0 0 0 0 0 0 0 0 0 0 0 0 0
3 0 0 0 0 0 0 0 0 0 0 0 0 0 0 0 0 0 0 0 0 0 0 0 0 0 0 0 0 0 0 0 0 0 0 0 0 0 0 0 0 0 0
3 0 0 0 0 0 0 0 0 0 0 0 0 0 0 0 0 0 0 0 0 0 0 0 0 0 0 0 0 0 0 0 0 0 0 0 0 0 0 0 0 0 0
3 0 0 0 0 0 0 0 0 0 0 0 0 0 0 0 0 0 0 0 0 0 0 0 0 0 0 0 0 0 0 0 0 0 0 0 0 0 0 0 0 0 0
3 0 0 0 0 0 0 0 0 0 0 0 0 0 0 0 0 0 0 0 0 0 0 0 0 0 0 0 0 0 0 0 0 0 0 0 0 0 0 0 0 0 0
3 3 3 0 0 0 0 0 0 0 0 0 0 0 0 0 0 0 0 0 0 0 0 0 0 0 0 0 0 0 0 0 0 0 0 0 0 0 0 0 0 0 0
0 0 0 0 0 0 0 0 0 0 0 0 0 0 0 0 0 0 0 0 0 0 0 0 0 0 0 0 0 0 0 0 0 0 0 0 0 0 0 0 0 0 0
0 0 0 0 0 0 0 0 0 0 0 0 0 0 0 0 0 0 0 0 0 0 0 0 0 0 0 0 0 0 0 0 0 0 0 0 0 0 0 0 0 0 0
0 0 0 0 0 0 0 0 0 0 0 0 0 0 0 0 0 0 0 0 0 0 0 0 0 0 0 0 0 0 0 0 0 0 0 0 0 0 0 0 0 0 0
0 0 0 0 0 0 0 0 0 0 0 0 0 0 0 0 0 0 0 0 0 0 0 0 0 0 0 0 0 0 0 0 0 0 0 0 0 0 0 0 0 0 0
0 0 0 0 0 0 0 0 0 0 0 0 0 0 0 0 0 0 0 0 0 0 0 0 0 0 0 0 0 0 0 0 0 0 0 0 0 0 0 0 0 0 0
0 0 0 0 0 0 0 0 0 0 0 0 0 0 0 0 0 0 0 0 0 0 0 0 0 0 0 0 0 0 0 0 0 0 0 0 0 0 0 0 0 0 0
0 0 0 0 0 0 0 0 0 0 0 0 0 0 0 0 0 0 0 0 0 0 0 0 0 0 0 0 0 0 0 0 0 0 0 0 0 0 0 0 0 0 0
0 0 0 0 0 0 0 0 0 0 0 0 0 0 0 0 0 0 0 0 0 0 0 0 0 0 0 0 0 0 0 0 0 0 0 0 0 0 0 0 0 0 0
0 0 0 0 0 0 0 0 0 0 0 0 0 0 0 0 0 0 0 0 0 0 0 0 0 0 0 0 0 0 0 0 0 0 0 0 0 0 0 0 0 0 0
0 0 0 0 0 0 0 0 0 0 0 0 0 0 0 0 0 0 0 0 0 0 0 0 0 0 0 0 0 0 0 0 0 0 0 0 0 0 0 0 0 0 0
0 0 0 0 0 0 0 0 0 0 0 0 0 0 0 0 0 0 0 0 0 0 0 0 0 0 0 0 0 0 0 0 0 0 0 0 0 0 0 0 0 0 0
0 0 0 0 0 0 0 0 0 0 0 0 0 0 0 0 0 0 0 0 0 0 0 0 0 0 0 0 0 0 0 0 0 0 0 0 0 0 0 0 0 0 0
0 0 0 0 0 0 0 0 0 0 0 0 0 0 0 0 0 0 0 0 0 0 0 0 0 0 0 0 0 0 0 0 0 0 0 0 0 0 0 0 0 0 0
0 0 0 0 0 0 0 0 0 0 0 0 0 0 0 0 0 0 0 0 0 0 0 0 0 0 0 0 0 0 0 0 0 0 0 0 0 0 0 0 0 0 0
0 0 0 0 0 0 0 0 0 0 0 0 0 0 0 0 0 0 0 0 0 0 0 0 0 0 0 0 0 0 0 0 0 0 0 0 0 0 0 0 0 0 0
0 0 0 0 0 0 0 0 0 0 0 0 0 0 0 0 0 0 0 0 0 0 0 0 0 0 0 0 0 0 0 0 0 0 0 0 0 0 0 0 0 0 0
0 0 0 0 0 0 0 0 0 0 0 0 0 0 0 0 0 0 0 0 0 0 0 0 0 0 0 0 0 0 0 0 0 0 0 0 0 0 0 0 0 0 0
0 0 0 0 0 0 0 0 0 0 0 0 0 0 0 0 0 0 0 0 0 0 0 0 0 0 0 0 0 0 0 0 0 0 0 0 0 0 0 0 0 0 0
0 0 0 0 0 0 0 0 0 0 0 0 0 0 0 0 0 0 0 0 0 0 0 0 0 0 0 0 0 0 0 0 0 0 0 0 0 0 0 0 0 0 0
Height
5798 5796 5793 5791 5789 5786 5784 5782 5779 5777 5775 5772 5771 5769 5767 5766 5766 5765 5764 5764 5764 5763 5763 5763 5764 5764 5764 5763 5763 5763 5762 5762 5761 5759 5758 5756 5755 5755 5754 5753 5751 5751 5750
5794 5792 5790 5787 5785 5782 5780 5778 5775 5773 5770 5768 5766 5764 5763 5762 5761 5760 5759 5759 5759 5758 5758 5758 5759 5759 5758 5758 5758 5757 5756 5755 5754 5753 5751 5749 5748 5747 5746 5745 5743 5742 5741
5790 5788 5785 5783 5781 5779 5776 5774 5772 5769 5767 5764 5762 5760 5759 5757 5756 5755 5755 5754 5754 5754 5753 5753 5753 5754 5753 5753 5752 5751 5750 5749 5747 5746 5744 5742 5741 5739 5738 5737 5735 5733 5732
5786 5784 5782 5779 5777 5775 5773 5771 5768 5766 5763 5761 5759 5757 5755 5754 5753 5752 5751 5750 5749 5749 5748 5748 5748 5748 5748 5747 5746 5745 5743 5742 5740 5739 5737 5735 5734 5732 5731 5729 5727 5725 5724
5782 5780 5777 5775 5773 5771 5769 5767 5764 5762 5760 5757 5755 5753 5752 5750 5749 5748 5747 5746 5745 5744 5743 5743 5742 5742 5741 5740 5739 5738 5737 5735 5733 5731 5730 5728 5726 5725 5723 5721 5719 5717 5716
5778 5776 5773 5771 5769 5767 5765 5763 5761 5758 5756 5754 5752 5750 5748 5747 5745 5744 5743 5741 5740 5739 5739 5738 5737 5736 5735 5734 5733 5732 5730 5728 5726 5725 5723 5721 5719 5717 5715 5713 5711 5709 5708
5774 5772 5769 5767 5765 5763 5760 5758 5757 5754 5752 5750 5748 5746 5744 5743 5741 5740 5739 5737 5736 5735 5734 5733 5732 5731 5730 5729 5727 5725 5724 5721 5720 5718 5716 5713 5711 5709 5707 5705 5703 5701 5699
5769 5767 5765 5763 5761 5759 5757 5755 5753 5750 5748 5746 5744 5742 5741 5739 5737 5735 5734 5733 5732 5730 5729 5728 5727 5725 5724 5722 5721 5719 5717 5715 5713 5711 5709 5706 5704 5701 5699 5697 5695 5693 5691
5765 5763 5761 5759 5757 5755 5753 5751 5749 5747 5745 5743 5740 5738 5737 5735 5733 5731 5730 5728 5727 5725 5724 5722 5721 5720 5718 5716 5715 5713 5710 5708 5706 5703 5701 5699 5696 5693 5691 5689 5687 5684 5683
5761 5759 5758 5755 5753 5752 5749 5747 5745 5743 5741 5739 5737 5735 5733 5731 5729 5727 5726 5724 5722 5720 5718 5717 5715 5713 5712 5710 5708 5706 5704 5701 5699 5696 5694 5692 5689 5686 5683 5681 5679 5676 5674
5757 5755 5753 5752 5750 5748 5746 5744 5742 5740 5738 5735 5733 5731 5729 5727 5725 5723 5721 5719 5717 5715 5713 5711 5709 5707 5705 5703 5701 5699 5696 5694 5692 5689 5687 5685 5682 5679 5676 5673 5671 5668 5666
5752 5751 5749 5747 5745 5743 5742 5740 5738 5736 5734 5732 5730 5728 5725 5723 5721 5719 5717 5714 5712 5710 5708 5706 5704 5702 5699 5697 5695 5692 5690 5688 5685 5683 5680 5677 5675 5672 5669 5667 5664 5661 5658
5747 5746 5744 5742 5741 5739 5737 5736 5734 5732 5730 5728 5726 5724 5722 5720 5717 5715 5712 5710 5707 5705 5703 5701 5699 5697 5694 5692 5689 5687 5684 5682 5679 5676 5673 5670 5668 5665 5662 5659 5657 5654 5651
5743 5741 5740 5738 5736 5735 5733 5732 5730 5728 5726 5724 5722 5720 5718 5715 5713 5711 5708 5706 5704 5702 5700 5697 5695 5693 5690 5687 5684 5682 5679 5676 5673 5670 5667 5664 5660 5657 5655 5652 5650 5647 5644
5737 5736 5735 5733 5732 5730 5729 5727 5726 5724 5723 5721 5718 5716 5714 5712 5710 5707 5705 5703 5701 5699 5697 5694 5691 5689 5686 5683 5680 5677 5674 5671 5667 5664 5660 5657 5654 5651 5648 5645 5642 5640 5637
5732 5731 5730 5728 5727 5725 5724 5723 5721 5720 5718 5716 5714 5712 5710 5709 5706 5704 5702 5700 5698 5696 5693 5691 5688 5685 5682 5679 5676 5673 5669 5666 5662 5658 5655 5651 5648 5644 5641 5638 5635 5632 5629
5726 5725 5724 5723 5722 5720 5719 5717 5716 5715 5714 5712 5710 5709 5707 5705 5703 5701 5699 5697 5695 5692 5690 5687 5684 5681 5678 5675 5672 5668 5664 5661 5657 5653 5649 5645 5642 5638 5635 5631 5628 5625 5622
5720 5720 5719 5717 5716 5715 5714 5712 5711 5710 5709 5707 5706 5705 5703 5702 5700 5698 5696 5694 5691 5689 5686 5683 5680 5677 5674 5671 5667 5664 5660 5656 5652 5648 5644 5640 5636 5632 5628 5625 5621 5618 5615
5714 5714 5712 5712 5711 5710 5709 5707 5706 5705 5703 5702 5701 5700 5699 5697 5695 5693 5691 5690 5687 5684 5682 5679 5676 5673 5670 5666 5663 5659 5655 5651 5647 5643 5639 5635 5631 5626 5622 5618 5615 5611 5608
5708 5707 5706 5706 5705 5704 5703 5702 5701 5699 5698 5697 5695 5694 5693 5692 5690 5689 5687 5685 5682 5680 5677 5674 5672 5669 5665 5662 5658 5654 5650 5646 5642 5638 5634 5630 5625 5621 5616 5612 5608 5605 5602
5702 5701 5700 5700 5699 5698 5697 5696 5695 5694 5693 5691 5690 5689 5688 5687 5685 5684 5682 5680 5677 5675 5672 5670 5667 5664 5661 5657 5653 5650 5646 5642 5637 5633 5629 5624 5620 5615 5611 5607 5603 5599 5595
5695 5695 5694 5694 5693 5693 5692 5690 5689 5688 5687 5686 5685 5683 5682 5681 5680 5678 5677 5675 5672 5670 5667 5665 5662 5659 5656 5652 5649 5645 5641 5637 5633 5629 5624 5620 5615 5611 5606 5602 5598 5594 5590
5689 5689 5689 5688 5688 5687 5686 5685 5683 5682 5681 5680 5679 5678 5677 5676 5674 5673 5672 5670 5667 5665 5662 5660 5657 5654 5651 5647 5644 5640 5636 5632 5628 5624 5620 5615 5611 5606 5602 5597 5592 5589 5585
5683 5683 5683 5682 5682 5681 5680 5679 5677 5676 5675 5675 5674 5673 5672 5671 5669 5668 5666 5664 5662 5660 5657 5655 5652 5649 5646 5642 5639 5635 5631 5627 5623 5619 5615 5611 5606 5602 5597 5592 5588 5584 5580
5677 5677 5676 5676 5675 5674 5674 5673 5672 5670 5670 5669 5668 5667 5666 5665 5664 5663 5661 5659 5657 5655 5652 5650 5647 5644 5641 5637 5634 5630 5626 5622 5618 5614 5610 5606 5602 5597 5593 5588 5584 5579 5575
5670 5670 5670 5669 5669 5668 5667 5667 5666 5665 5664 5663 5663 5662 5661 5660 5659 5657 5655 5654 5652 5650 5647 5645 5642 5639 5636 5632 5629 5625 5621 5618 5614 5610 5606 5601 5597 5593 5588 5584 5579 5575 5571
Wind_Speed
16 16 15 15 16 16 17 17 17 18 18 17 18 18 17 17 17 16 16 16 17 17 17 16 16 17 18 19 20 20 21 21 22 24 25 25 26 25 26 28 29 30 31
16 16 15 16 16 16 16 16 16 17 17 17 17 17 16 16 16 16 16 16 16 17 16 16 17 17 18 19 19 20 21 22 22 24 25 26 26 26 26 26 27 29 29
15 15 15 15 15 14 15 15 15 15 16 16 15 15 14 14 14 15 15 15 15 16 16 16 17 17 18 19 20 21 22 23 23 24 25 25 26 26 26 26 27 27 28
15 15 15 16 15 15 15 16 16 15 15 15 15 14 14 14 14 14 15 15 15 16 17 18 18 19 19 20 21 22 23 24 25 25 25 25 26 27 27 26 27 27 28
16 16 15 16 16 16 16 16 15 16 16 16 15 15 15 15 15 15 16 16 16 16 17 18 19 20 21 21 21 22 23 24 24 25 25 25 25 27 27 27 27 27 27
15 16 16 17 16 16 16 15 15 16 16 16 15 16 16 16 16 16 16 16 17 17 17 18 19 20 21 21 22 23 24 23 24 24 25 25 25 26 27 27 28 27 27
15 16 16 16 16 16 16 15 15 15 15 16 16 16 16 16 17 17 16 17 17 17 17 17 18 19 20 21 22 24 24 24 24 25 25 25 25 26 27 27 27 27 27
16 16 16 16 15 15 15 15 15 15 15 16 16 16 16 16 17 17 17 17 18 18 18 18 19 19 20 21 22 24 24 25 25 25 25 25 26 26 27 27 27 27 27
16 16 15 15 15 15 15 15 15 15 15 16 16 16 16 16 16 16 17 18 18 19 19 19 19 20 21 21 22 23 24 24 24 25 25 25 26 26 26 26 26 26 27
15 15 15 15 15 15 14 15 15 15 15 16 16 16 16 16 16 16 17 18 18 19 19 20 21 21 22 23 23 23 23 23 24 24 24 25 25 25 25 26 26 25 25
15 15 16 16 16 16 15 16 16 16 15 15 15 16 16 16 17 18 18 18 19 19 19 19 20 21 22 22 23 22 22 23 23 24 24 24 25 25 25 25 25 25 25
16 16 17 18 17 17 16 16 16 16 15 15 16 16 17 17 18 19 19 19 19 19 18 19 19 20 21 21 21 21 22 22 23 23 23 23 23 23 24 24 24 24 24
16 17 18 18 18 17 16 16 16 16 16 16 17 17 17 17 17 18 18 17 17 16 17 17 18 19 19 19 20 20 21 22 22 22 23 23 23 23 24 24 23 23 24
16 17 17 17 17 17 18 18 17 17 17 17 17 17 17 17 17 16 16 15 15 16 17 18 18 18 19 19 20 20 20 21 22 23 24 23 23 23 23 23 23 23 24
17 17 17 17 17 18 18 18 18 18 17 17 17 17 16 16 16 15 15 15 16 17 17 18 19 19 19 19 19 20 21 22 23 24 23 23 23 23 23 24 24 24 24
17 18 18 17 18 18 18 18 18 18 17 17 17 17 16 15 15 15 15 15 16 17 17 18 18 19 19 19 20 21 22 23 23 23 23 23 23 24 24 24 24 24 23
18 18 18 18 18 18 18 17 17 17 17 17 16 16 15 15 15 15 15 16 16 17 18 18 18 19 19 20 21 22 23 23 23 24 24 24 24 24 24 24 24 24 24
18 18 18 18 18 18 18 17 17 17 16 16 16 16 16 16 15 16 16 17 17 18 18 19 20 20 20 21 22 23 23 23 23 24 25 25 25 25 25 25 25 24 23
19 19 19 18 18 18 18 18 17 17 17 17 16 16 16 16 17 17 17 18 18 19 19 20 20 20 21 22 23 23 23 23 24 25 25 26 25 26 26 25 25 24 23
19 19 19 19 19 19 19 19 18 17 18 18 17 17 17 17 17 17 18 19 19 20 20 21 21 21 22 22 23 23 23 24 25 25 25 25 25 25 25 25 24 23 23
20 20 20 20 19 19 19 19 19 19 18 18 17 17 17 17 18 18 19 19 19 20 20 21 21 22 22 22 23 23 23 24 24 25 25 25 25 25 25 24 23 23 22
19 19 19 19 19 19 19 19 19 19 18 18 18 17 17 18 18 19 19 18 19 19 20 20 21 21 22 22 23 23 23 23 24 25 25 24 24 25 24 24 23 22 22
19 19 18 18 18 19 19 19 19 18 18 18 18 17 17 17 17 18 18 18 18 19 20 20 21 22 22 23 23 23 23 23 24 25 24 24 25 25 25 24 22 21 22
20 19 19 18 18 19 19 19 19 18 17 17 17 17 17 17 17 18 18 19 19 19 20 20 21 22 22 23 23 23 23 24 24 24 24 25 25 25 24 24 23 22 22
20 20 20 19 19 19 19 19 18 18 18 18 18 17 17 17 17 18 18 19 19 20 20 20 20 21 22 23 23 23 23 24 24 24 24 25 25 24 24 24 24 23 23
21 21 20 20 20 20 19 18 18 18 17 17 18 18 18 18 18 19 19 19 20 20 20 21 21 22 23 23 23 23 23 23 23 24 24 25 25 25 24 24 23 23 22
Wind_Direction
301 302 301 302 303 303 302 302 302 304 304 302 299 295 291 287 285 284 285 284 284 283 280 276 275 276 277 279 279 280 281 281 282 283 283 279 278 277 277 277 275 271 269
299 302 304 306 304 303 305 305 304 305 308 307 302 299 296 291 287 286 285 284 283 283 280 276 276 277 278 280 280 282 284 284 283 283 285 282 280 280 280 280 278 273 270
298 300 304 306 305 304 308 311 312 311 312 313 310 304 300 296 291 289 288 287 284 284 282 280 278 279 280 282 283 285 286 287 287 287 286 284 282 281 281 281 280 277 273
302 304 306 306 305 305 308 309 310 310 311 311 309 305 302 299 296 294 290 289 286 286 286 284 281 281 282 285 287 288 288 289 289 289 288 285 283 283 283 283 282 279 277
303 304 306 308 306 306 307 308 309 308 309 310 307 303 300 298 296 295 294 291 289 289 288 287 284 283 283 286 288 290 291 291 291 291 289 287 286 285 285 285 285 281 279
302 303 305 307 309 308 307 307 309 308 308 308 304 301 297 296 295 294 295 295 292 291 289 288 288 287 286 287 289 291 292 292 292 293 292 291 289 289 288 287 288 284 280
300 303 305 307 308 308 307 307 308 308 309 309 305 303 297 295 294 294 293 293 294 294 292 291 291 291 291 290 291 292 294 295 294 294 295 294 292 290 289 288 288 287 281
299 304 307 308 308 308 307 306 307 308 309 309 306 304 303 299 296 294 293 294 295 294 293 291 291 293 295 295 294 295 295 295 296 296 297 298 296 294 292 290 288 285 282
299 303 305 307 308 310 309 308 307 308 309 308 307 305 304 302 300 299 297 297 296 294 292 292 293 295 298 297 297 297 297 297 297 298 298 298 298 297 295 292 289 287 284
296 300 305 307 307 308 309 309 308 309 309 307 306 306 306 305 304 303 302 302 299 296 294 294 295 295 296 297 297 297 297 298 299 300 299 298 298 298 298 295 291 289 288
292 297 303 306 306 306 308 310 311 311 311 309 307 307 307 305 303 302 302 302 301 300 299 298 296 297 298 299 300 299 299 300 301 301 300 299 299 300 300 298 295 292 291
292 295 299 302 304 307 308 311 313 313 313 311 310 309 309 309 307 306 304 303 303 303 302 301 300 301 304 305 304 303 303 303 303 303 303 301 300 300 300 301 298 295 294
290 294 298 300 301 303 306 310 312 311 313 314 313 311 310 310 311 311 310 308 306 306 306 308 309 310 311 311 309 309 309 308 308 308 308 306 304 303 301 301 300 299 299
286 292 297 300 302 302 303 304 307 309 310 315 315 314 313 312 314 315 315 316 316 315 316 317 317 317 316 316 315 316 316 316 315 313 311 308 305 304 303 301 301 301 300
284 288 295 299 300 302 303 304 305 308 312 313 316 317 316 316 316 315 315 317 317 318 318 317 317 318 318 319 320 320 319 318 318 317 314 309 305 305 305 303 302 301 301
282 287 292 295 297 299 301 303 306 308 309 310 312 314 316 317 317 317 317 317 318 319 320 321 321 321 320 320 320 320 320 320 320 321 319 315 311 308 306 305 305 304 302
282 286 289 292 294 296 299 301 303 304 306 308 308 309 311 313 314 316 318 318 319 319 320 320 320 321 321 321 322 322 322 321 321 322 322 320 317 314 311 307 306 305 303
280 284 288 289 291 293 296 298 300 300 301 303 304 305 305 307 309 312 314 317 318 317 317 318 319 319 321 322 323 323 323 322 322 322 322 321 319 318 316 311 309 308 308
279 283 285 286 288 291 292 292 294 297 298 299 300 299 300 301 303 305 310 313 314 314 315 317 318 318 319 321 323 323 323 323 323 322 323 322 320 319 318 315 312 310 310
280 282 284 285 287 289 289 288 289 293 296 296 295 294 295 297 300 304 308 312 313 313 314 316 316 316 318 320 322 323 324 324 324 324 324 324 323 322 321 319 316 313 312
279 281 284 285 286 288 289 290 290 292 295 295 292 292 292 294 298 303 307 311 312 314 314 315 316 317 318 319 321 323 324 325 325 325 325 326 326 326 324 321 319 317 315
278 279 283 284 284 288 291 293 293 294 294 295 292 290 290 293 297 301 304 308 311 313 315 316 318 317 318 320 321 323 324 326 327 327 328 329 330 329 328 325 322 320 319
275 278 282 284 285 287 289 291 291 290 291 293 292 291 291 294 298 301 303 305 309 312 313 314 316 317 317 318 320 321 322 324 326 327 328 330 331 330 330 329 326 324 323
274 275 278 281 283 286 288 289 288 287 287 290 290 288 289 292 296 300 302 304 307 308 310 313 315 316 317 318 319 320 321 323 325 326 327 329 330 330 329 329 329 327 324
272 272 274 277 280 285 286 287 288 287 286 288 287 287 289 292 295 298 301 304 306 308 310 312 314 316 317 319 319 319 321 323 324 325 326 328 330 331 331 331 330 329 327
272 272 274 277 280 284 285 284 285 288 288 289 288 287 289 291 294 296 298 301 303 305 308 310 312 315 317 317 317 319 320 322 323 324 326 329 330 332 333 333 333 332 330